EEST,Max TemperatureF,Mean TemperatureF,Min TemperatureF,Max Dew PointF,MeanDew PointF,Min DewpointF,Max Humidity, Mean Humidity, Min Humidity, Max Sea Level PressureIn, Mean Sea Level PressureIn, Min Sea Level PressureIn, Max VisibilityMiles, Mean VisibilityMiles, Min VisibilityMiles, Max Wind SpeedMPH, Mean Wind SpeedMPH, Max Gust SpeedMPH,PrecipitationIn, CloudCover, Events, WindDirDegrees
2012-9-1,86,74,63,63,57,52,73,54,27,30.09,30.04,30.01,9,6,6,12,6,,0.00,1,,156
2012-9-2,84,74,64,63,57,50,78,53,27,30.16,30.11,30.06,6,6,6,12,6,,0.00,1,,195
2012-9-3,84,74,63,63,58,52,73,57,36,30.11,30.04,29.95,6,6,6,13,6,,0.00,1,,200
2012-9-4,85,73,61,64,61,52,82,63,42,30.01,29.96,29.89,6,6,6,14,6,,0.00,1,,191
2012-9-5,86,74,62,66,62,55,83,63,29,29.97,29.92,29.86,6,6,6,14,4,,0.00,,,218
2012-9-6,87,76,65,68,64,59,83,67,30,29.95,29.88,29.83,9,6,6,15,5,,0.00,2,,231
2012-9-7,88,80,71,64,58,50,73,47,23,30.01,29.98,29.92,6,6,6,15,10,,0.00,4,,301
2012-9-8,86,77,68,63,56,43,73,51,22,30.06,30.02,29.95,6,6,6,12,5,,0.00,3,,225
2012-9-9,88,74,60,61,51,46,77,47,18,30.06,30.00,29.95,6,6,6,12,5,,0.00,1,,210
2012-9-10,84,75,66,63,56,48,73,52,27,30.15,30.09,30.01,6,6,6,13,6,,0.00,3,,202
2012-9-11,82,74,65,59,55,48,73,53,30,30.11,30.05,29.98,6,6,6,15,6,,0.00,2,,186
2012-9-12,80,72,63,59,56,54,68,56,34,30.01,29.91,29.80,6,6,6,14,6,,0.00,3,,160
2012-9-13,82,71,60,59,55,48,77,53,30,29.86,29.78,29.71,6,6,6,16,5,,0.00,2,,148
2012-9-14,82,74,67,68,62,55,88,68,39,29.92,29.83,29.74,6,6,4,21,6,,0.08,6,Rain-Thunderstorm,140
2012-9-15,72,69,66,68,63,61,94,80,64,29.88,29.84,29.77,6,6,5,21,7,,0.16,7,Rain-Thunderstorm,116
2012-9-16,75,70,64,63,61,59,88,74,57,29.87,29.84,29.80,6,6,6,21,4,,0.02,6,Rain,322
2012-9-17,74,70,65,64,62,59,94,78,50,29.98,29.92,29.86,6,6,6,14,6,,0.08,6,Rain-Thunderstorm,325
2012-9-18,79,72,65,66,63,57,94,78,38,29.98,29.95,29.92,6,6,6,12,4,,0.02,4,Rain,189
2012-9-19,79,72,64,64,62,59,88,73,43,29.96,29.91,29.86,6,6,6,12,5,,0.00,2,,149
2012-9-20,79,72,64,66,61,48,88,74,52,29.95,29.88,29.83,6,6,6,24,5,24,0.08,3,Rain-Thunderstorm,285
2012-9-21,69,64,60,48,43,37,59,44,24,30.06,30.03,29.95,6,6,6,34,23,46,0.00,1,,342
2012-9-22,74,66,55,46,40,36,67,40,17,30.09,30.05,30.01,6,6,6,15,10,,0.00,,,325
2012-9-23,79,65,51,55,46,39,76,51,24,30.14,30.07,30.04,6,6,6,8,3,,0.00,,,206
2012-9-24,80,68,56,63,54,48,77,61,42,30.04,29.97,29.89,6,6,6,12,5,,0.00,,,121
2012-9-25,78,68,57,66,58,50,78,67,45,29.89,29.86,29.83,6,6,6,12,4,,0.00,2,,320
2012-9-26,90,76,62,64,57,46,88,58,16,29.98,29.93,29.89,6,6,6,12,4,,0.00,4,,340
2012-9-27,88,74,60,61,57,52,78,57,25,30.04,30.01,29.98,6,6,6,8,4,,0.00,1,,235
2012-9-28,89,76,62,63,58,50,83,59,26,30.09,30.05,30.01,6,6,6,9,3,,0.00,1,,259
2012-9-29,89,76,62,64,57,48,83,57,24,30.12,30.07,30.04,6,6,6,9,4,,0.00,,,209
2012-9-30,89,74,60,63,57,52,82,55,20,30.10,30.06,30.04,6,6,6,9,3,,0.00,,,209